When you browse on this site, cookies collect data to enhance your experience and personalize the content and advertising you see.
Visit our Privacy Policy to learn more. By continuing to use the site, you agree to this use of cookies and data.
  • In Hungary
  • List of Countries
  • For 7 days
  • Water Temperature
  • Weather Map
  • News
  • Weather Widgets
  • user-avatar
    Login

    Hourly Weather Lucjanowo

    Today, 20 September, Friday

    Time Temperature Precipitation Wind Pressure Humidity
    00:00 +7°C° 0 mm 3 mps 758 mmHg 80%
    01:00 +7°C° 0 mm 3 mps 758 mmHg 82%
    02:00 +7°C° 0 mm 3 mps 758 mmHg 83%
    03:00 +7°C° 0 mm 3 mps 757 mmHg 85%
    04:00 +5°C° 0 mm 3 mps 757 mmHg 86%
    05:00 +7°C° 0 mm 3 mps 757 mmHg 84%
    06:00 +7°C° 0 mm 3 mps 757 mmHg 82%
    07:00 +7°C° 0 mm 4 mps 757 mmHg 80%
    08:00 +8°C° 0 mm 4 mps 757 mmHg 71%
    09:00 +11°C° 0 mm 4 mps 758 mmHg 63%
    10:00 +13°C° 0 mm 4 mps 758 mmHg 55%
    11:00 +13°C° 0 mm 4 mps 758 mmHg 51%
    12:00 +14°C° 0 mm 4 mps 757 mmHg 48%
    13:00 +15°C° 0 mm 4 mps 757 mmHg 45%
    14:00 +14°C° 0 mm 4 mps 757 mmHg 47%
    15:00 +14°C° 0 mm 4 mps 756 mmHg 49%
    16:00 +14°C° 0 mm 4 mps 756 mmHg 52%
    17:00 +13°C° 0 mm 3 mps 756 mmHg 55%
    18:00 +13°C° 0 mm 3 mps 756 mmHg 59%
    19:00 +12°C° 0 mm 3 mps 756 mmHg 62%
    20:00 +12°C° 0 mm 3 mps 756 mmHg 65%
    21:00 +11°C° 0 mm 3 mps 756 mmHg 67%
    22:00 +11°C° 0 mm 4 mps 756 mmHg 70%
    23:00 +11°C° 0 mm 4 mps 756 mmHg 74%

    Tomorrow, 21 September, Saturday

    Time Temperature Precipitation Wind Pressure Humidity
    00:00 +10°C° 0 mm 4 mps 756 mmHg 78%
    01:00 +8°C° 0 mm 4 mps 756 mmHg 82%
    02:00 +8°C° 0 mm 4 mps 756 mmHg 83%
    03:00 +8°C° 0 mm 4 mps 756 mmHg 85%
    04:00 +8°C° 0 mm 4 mps 755 mmHg 87%
    05:00 +8°C° 0 mm 4 mps 755 mmHg 86%
    06:00 +8°C° 0 mm 4 mps 755 mmHg 84%
    07:00 +9°C° 0 mm 5 mps 755 mmHg 83%
    08:00 +12°C° 0 mm 5 mps 755 mmHg 79%
    09:00 +13°C° 0 mm 5 mps 755 mmHg 74%
    10:00 +15°C° 0 mm 5 mps 755 mmHg 70%
    11:00 +16°C° 0 mm 5 mps 755 mmHg 67%
    12:00 +17°C° 0 mm 5 mps 755 mmHg 64%
    13:00 +19°C° 0 mm 5 mps 755 mmHg 61%
    14:00 +19°C° 0 mm 5 mps 755 mmHg 61%
    15:00 +19°C° 0 mm 4 mps 754 mmHg 61%
    16:00 +19°C° 0 mm 4 mps 754 mmHg 61%
    17:00 +17°C° 0 mm 3 mps 754 mmHg 67%
    18:00 +15°C° 0 mm 2 mps 754 mmHg 74%
    19:00 +14°C° 0 mm 1 mps 754 mmHg 81%
    20:00 +13°C° 0 mm 1 mps 754 mmHg 82%
    21:00 +13°C° 0 mm 1 mps 754 mmHg 84%
    22:00 +12°C° 0 mm 1 mps 754 mmHg 85%
    23:00 +12°C° 0 mm 1 mps 754 mmHg 85%

    Day after tomorrow, 22 September, Sunday

    Time Temperature Precipitation Wind Pressure Humidity
    00:00 +12°C° 0 mm 1 mps 754 mmHg 85%
    01:00 +12°C° 0 mm 2 mps 754 mmHg 84%
    02:00 +12°C° 0 mm 2 mps 754 mmHg 84%
    03:00 +12°C° 0 mm 1 mps 753 mmHg 84%
    04:00 +11°C° 0 mm 1 mps 753 mmHg 84%
    05:00 +12°C° 0 mm 1 mps 753 mmHg 81%
    06:00 +12°C° 0 mm 2 mps 753 mmHg 79%
    07:00 +13°C° 0 mm 2 mps 753 mmHg 76%
    08:00 +15°C° 0 mm 2 mps 753 mmHg 68%
    09:00 +17°C° 0 mm 2 mps 753 mmHg 60%
    10:00 +18°C° 0 mm 2 mps 753 mmHg 53%
    11:00 +20°C° 0 mm 2 mps 752 mmHg 48%
    12:00 +21°C° 0 mm 2 mps 752 mmHg 43%
    13:00 +23°C° 0 mm 2 mps 752 mmHg 38%
    14:00 +23°C° 0 mm 2 mps 751 mmHg 39%
    15:00 +23°C° 0 mm 2 mps 751 mmHg 40%
    16:00 +23°C° 0 mm 2 mps 750 mmHg 41%
    17:00 +20°C° 0 mm 2 mps 750 mmHg 44%
    18:00 +18°C° 0 mm 2 mps 750 mmHg 48%
    19:00 +16°C° 0 mm 2 mps 750 mmHg 51%
    20:00 +16°C° 0 mm 2 mps 750 mmHg 53%
    21:00 +15°C° 0 mm 2 mps 750 mmHg 56%
    22:00 +14°C° 0 mm 2 mps 749 mmHg 58%
    23:00 +14°C° 0 mm 2 mps 749 mmHg 61%

    23 September, Monday

    Time Temperature Precipitation Wind Pressure Humidity
    00:00 +13°C° 0 mm 3 mps 749 mmHg 64%
    01:00 +12°C° 0 mm 3 mps 748 mmHg 66%
    02:00 +12°C° 0 mm 3 mps 748 mmHg 68%
    03:00 +12°C° 0 mm 3 mps 748 mmHg 69%
    04:00 +11°C° 0 mm 3 mps 747 mmHg 71%
    05:00 +12°C° 0 mm 4 mps 747 mmHg 69%
    06:00 +12°C° 0 mm 4 mps 747 mmHg 67%
    07:00 +12°C° 0 mm 4 mps 746 mmHg 66%
    08:00 +13°C° 0 mm 4 mps 746 mmHg 61%
    09:00 +15°C° 0 mm 4 mps 746 mmHg 57%
    10:00 +16°C° 0 mm 5 mps 746 mmHg 52%
    11:00 +18°C° 0 mm 4 mps 746 mmHg 51%
    12:00 +19°C° 0 mm 4 mps 746 mmHg 49%
    13:00 +20°C° 0 mm 4 mps 745 mmHg 48%
    14:00 +19°C° 0 mm 4 mps 745 mmHg 51%
    15:00 +18°C° 0 mm 3 mps 745 mmHg 54%
    16:00 +18°C° 0 mm 3 mps 745 mmHg 58%
    17:00 +17°C° 0 mm 3 mps 745 mmHg 61%
    18:00 +16°C° 0 mm 2 mps 745 mmHg 65%
    19:00 +15°C° 0 mm 2 mps 745 mmHg 69%
    20:00 +14°C° 0 mm 2 mps 745 mmHg 74%
    21:00 +14°C° 0 mm 2 mps 745 mmHg 79%
    22:00 +13°C° 0 mm 2 mps 746 mmHg 85%
    23:00 +13°C° 0 mm 2 mps 746 mmHg 87%

    24 September, Tuesday

    Time Temperature Precipitation Wind Pressure Humidity
    00:00 +12°C° 0 mm 2 mps 746 mmHg 90%
    01:00 +12°C° 0 mm 2 mps 746 mmHg 92%
    02:00 +12°C° 0 mm 2 mps 746 mmHg 93%
    03:00 +10°C° 0 mm 2 mps 746 mmHg 95%
    04:00 +10°C° 0 mm 2 mps 746 mmHg 96%
    05:00 +10°C° 0 mm 2 mps 747 mmHg 94%
    06:00 +12°C° 0 mm 2 mps 747 mmHg 92%
    07:00 +12°C° 0 mm 2 mps 747 mmHg 90%
    08:00 +14°C° 0 mm 2 mps 748 mmHg 83%
    09:00 +16°C° 0 mm 2 mps 748 mmHg 75%
    10:00 +18°C° 0 mm 2 mps 748 mmHg 67%
    11:00 +19°C° 0 mm 2 mps 748 mmHg 62%
    12:00 +20°C° 0 mm 2 mps 748 mmHg 58%
    13:00 +21°C° 0 mm 2 mps 748 mmHg 53%
    14:00 +21°C° 0 mm 2 mps 748 mmHg 53%
    15:00 +21°C° 0 mm 2 mps 748 mmHg 53%
    16:00 +22°C° 0 mm 1 mps 748 mmHg 53%
    17:00 +21°C° 0 mm 1 mps 748 mmHg 57%
    18:00 +19°C° 0 mm 1 mps 748 mmHg 61%
    19:00 +18°C° 0 mm 1 mps 748 mmHg 65%
    20:00 +18°C° 0 mm 1 mps 748 mmHg 66%
    21:00 +17°C° 0 mm 2 mps 748 mmHg 68%
    22:00 +16°C° 0 mm 2 mps 748 mmHg 70%
    23:00 +16°C° 0 mm 2 mps 748 mmHg 71%

    25 September, Wednesday

    Time Temperature Precipitation Wind Pressure Humidity
    00:00 +16°C° 0 mm 2 mps 748 mmHg 72%
    01:00 +15°C° 0 mm 2 mps 748 mmHg 73%
    02:00 +15°C° 0 mm 2 mps 747 mmHg 74%
    03:00 +15°C° 0 mm 2 mps 747 mmHg 76%
    04:00 +15°C° 0 mm 1 mps 747 mmHg 77%
    05:00 +15°C° 0 mm 2 mps 747 mmHg 78%
    06:00 +15°C° 0 mm 2 mps 747 mmHg 78%
    07:00 +15°C° 0 mm 2 mps 746 mmHg 79%
    08:00 +16°C° 0 mm 2 mps 746 mmHg 77%
    09:00 +17°C° 0 mm 2 mps 746 mmHg 75%
    10:00 +17°C° 0 mm 2 mps 746 mmHg 73%
    11:00 +18°C° 0 mm 2 mps 746 mmHg 70%
    12:00 +19°C° 0 mm 3 mps 745 mmHg 66%
    13:00 +20°C° 0 mm 3 mps 745 mmHg 62%
    14:00 +20°C° 0 mm 3 mps 745 mmHg 61%
    15:00 +20°C° 0 mm 2 mps 744 mmHg 61%
    16:00 +20°C° 0 mm 2 mps 744 mmHg 61%
    17:00 +19°C° 0.1 mm 2 mps 744 mmHg 65%
    18:00 +18°C° 0.1 mm 2 mps 744 mmHg 69%
    19:00 +17°C° 0.1 mm 2 mps 744 mmHg 73%
    20:00 +17°C° 0.1 mm 2 mps 743 mmHg 74%
    21:00 +17°C° 0.1 mm 2 mps 743 mmHg 75%
    22:00 +16°C° 0.1 mm 2 mps 743 mmHg 76%
    23:00 +16°C° 0.1 mm 3 mps 743 mmHg 79%
    Show more